Station Historical Data
Daily Summary for October 18, 2017 Units:  English    Metric   Both
« Previous Day
Next Day »
Daily Weekly Monthly Yearly Custom
  High: Low: Average:
Temperature: 75.4 °F 56.8 °F 63.1 °F
Dew Point: 35.9 °F 19.6 °F 29.7 °F
Humidity: 38 % 18 % 29 %
Wind Speed: 14.0 mph 0.0 mph 2.2 mph
Wind Gust: 16.0 mph - -
Wind:- - SE
Pressure: 30.07 in 29.97 in -
Precipitation: 0.00 in    
Historical Graphs
 
 
Tabular Data for October 18, 2017
Time Temperature Dew Point Pressure Wind Wind Speed Wind Gust Humidity Rainfall Rate (Hourly) solar
00:04 59.4 °F 30.3 °F 30.07 in Calm   9.0 mph 33 % 0.00 in 0.00 W/m2
00:09 59.3 °F 30.2 °F 30.07 in East 5.0 mph 8.0 mph 33 % 0.00 in 0.00 W/m2
00:15 59.3 °F 30.2 °F 30.07 in East 6.0 mph 8.0 mph 33 % 0.00 in 0.00 W/m2
00:20 59.2 °F 30.1 °F 30.07 in Calm   9.0 mph 33 % 0.00 in 0.00 W/m2
00:25 59.2 °F 30.1 °F 30.07 in East 8.0 mph 8.0 mph 33 % 0.00 in 0.00 W/m2
00:30 59.1 °F 30.0 °F 30.07 in East 1.0 mph 8.0 mph 33 % 0.00 in 0.00 W/m2
00:35 59.0 °F 30.0 °F 30.07 in Calm   6.0 mph 33 % 0.00 in 0.00 W/m2
00:40 59.0 °F 30.0 °F 30.07 in East 1.0 mph 7.0 mph 33 % 0.00 in 0.00 W/m2
00:45 58.9 °F 29.9 °F 30.07 in East 4.0 mph 7.0 mph 33 % 0.00 in 0.00 W/m2
00:50 58.9 °F 29.9 °F 30.07 in East 4.0 mph 7.0 mph 33 % 0.00 in 0.00 W/m2
00:55 58.8 °F 29.8 °F 30.06 in Calm   7.0 mph 33 % 0.00 in 0.00 W/m2
01:00 58.7 °F 29.7 °F 30.06 in Calm   11.0 mph 33 % 0.00 in 0.00 W/m2
01:05 58.7 °F 29.7 °F 30.06 in East 5.0 mph 8.0 mph 33 % 0.00 in 0.00 W/m2
01:10 58.6 °F 29.6 °F 30.06 in East 6.0 mph 9.0 mph 33 % 0.00 in 0.00 W/m2
01:15 58.5 °F 30.2 °F 30.06 in Calm   7.0 mph 34 % 0.00 in 0.00 W/m2
01:20 58.4 °F 30.2 °F 30.06 in East 4.0 mph 9.0 mph 34 % 0.00 in 0.00 W/m2
01:25 58.3 °F 30.1 °F 30.06 in East 6.0 mph 8.0 mph 34 % 0.00 in 0.00 W/m2
01:30 58.2 °F 30.0 °F 30.06 in East 5.0 mph 7.0 mph 34 % 0.00 in 0.00 W/m2
01:35 58.1 °F 29.2 °F 30.06 in ESE 1.0 mph 11.0 mph 33 % 0.00 in 0.00 W/m2
01:40 58.0 °F 29.8 °F 30.06 in Calm   8.0 mph 34 % 0.00 in 0.00 W/m2
01:45 57.9 °F 29.7 °F 30.06 in East 4.0 mph 9.0 mph 34 % 0.00 in 0.00 W/m2
01:50 57.9 °F 29.0 °F 30.07 in Calm   9.0 mph 33 % 0.00 in 0.00 W/m2
01:55 57.8 °F 28.9 °F 30.06 in ESE 2.0 mph 11.0 mph 33 % 0.00 in 0.00 W/m2
02:00 57.8 °F 28.9 °F 30.06 in ESE 1.0 mph 8.0 mph 33 % 0.00 in 0.00 W/m2
02:05 57.8 °F 28.9 °F 30.06 in Calm   9.0 mph 33 % 0.00 in 0.00 W/m2
02:10 57.7 °F 28.8 °F 30.06 in East 1.0 mph 9.0 mph 33 % 0.00 in 0.00 W/m2
02:15 57.7 °F 28.8 °F 30.06 in East 7.0 mph 8.0 mph 33 % 0.00 in 0.00 W/m2
02:20 57.6 °F 28.7 °F 30.05 in Calm   8.0 mph 33 % 0.00 in 0.00 W/m2
02:25 57.5 °F 28.6 °F 30.05 in East 6.0 mph 11.0 mph 33 % 0.00 in 0.00 W/m2
02:30 57.4 °F 28.5 °F 30.05 in Calm   11.0 mph 33 % 0.00 in 0.00 W/m2
02:35 57.4 °F 28.5 °F 30.05 in ESE 4.0 mph 11.0 mph 33 % 0.00 in 0.00 W/m2
02:40 57.3 °F 27.7 °F 30.05 in ESE 2.0 mph 9.0 mph 32 % 0.00 in 0.00 W/m2
02:45 57.3 °F 27.7 °F 30.05 in Calm   12.0 mph 32 % 0.00 in 0.00 W/m2
02:50 57.2 °F 27.6 °F 30.05 in Calm   11.0 mph 32 % 0.00 in 0.00 W/m2
02:55 57.2 °F 26.1 °F 30.05 in Calm   9.0 mph 30 % 0.00 in 0.00 W/m2
03:00 57.2 °F 26.1 °F 30.05 in East 2.0 mph 11.0 mph 30 % 0.00 in 0.00 W/m2
03:05 57.2 °F 26.9 °F 30.05 in Calm   8.0 mph 31 % 0.00 in 0.00 W/m2
03:10 57.2 °F 26.1 °F 30.05 in Calm   8.0 mph 30 % 0.00 in 0.00 W/m2
03:15 57.2 °F 26.1 °F 30.05 in Calm   13.0 mph 30 % 0.00 in 0.00 W/m2
03:20 57.2 °F 26.1 °F 30.05 in East 6.0 mph 13.0 mph 30 % 0.00 in 0.00 W/m2
03:25 57.2 °F 26.1 °F 30.05 in East 7.0 mph 11.0 mph 30 % 0.00 in 0.00 W/m2
03:30 57.2 °F 26.1 °F 30.05 in Calm   7.0 mph 30 % 0.00 in 0.00 W/m2
03:35 57.1 °F 25.2 °F 30.05 in East 5.0 mph 12.0 mph 29 % 0.00 in 0.00 W/m2
03:40 57.1 °F 25.2 °F 30.04 in East 6.0 mph 9.0 mph 29 % 0.00 in 0.00 W/m2
03:45 57.1 °F 25.2 °F 30.04 in East 8.0 mph 8.0 mph 29 % 0.00 in 0.00 W/m2
03:50 57.1 °F 24.3 °F 30.04 in East 4.0 mph 9.0 mph 28 % 0.00 in 0.00 W/m2
03:55 57.0 °F 24.2 °F 30.04 in East 5.0 mph 11.0 mph 28 % 0.00 in 0.00 W/m2
04:00 57.0 °F 23.4 °F 30.04 in East 2.0 mph 13.0 mph 27 % 0.00 in 0.00 W/m2
04:05 57.0 °F 23.4 °F 30.04 in East 6.0 mph 11.0 mph 27 % 0.00 in 0.00 W/m2
04:10 57.0 °F 23.4 °F 30.04 in East 6.0 mph 9.0 mph 27 % 0.00 in 0.00 W/m2
04:15 57.0 °F 22.5 °F 30.04 in East 6.0 mph 8.0 mph 26 % 0.00 in 0.00 W/m2
04:20 57.0 °F 22.5 °F 30.04 in Calm   11.0 mph 26 % 0.00 in 0.00 W/m2
04:25 57.1 °F 23.5 °F 30.04 in Calm   11.0 mph 27 % 0.00 in 0.00 W/m2
04:30 57.1 °F 22.6 °F 30.03 in East 6.0 mph 9.0 mph 26 % 0.00 in 0.00 W/m2
04:35 57.1 °F 22.6 °F 30.03 in Calm     26 % 0.00 in 0.00 W/m2
04:40 57.0 °F 21.5 °F 30.04 in Calm   11.0 mph 25 % 0.00 in 0.00 W/m2
04:45 57.0 °F 21.5 °F 30.04 in ESE 7.0 mph 9.0 mph 25 % 0.00 in 0.00 W/m2
04:50 57.0 °F 21.5 °F 30.03 in Calm     25 % 0.00 in 0.00 W/m2
04:55 57.0 °F 22.5 °F 30.03 in East 12.0 mph 12.0 mph 26 % 0.00 in 0.00 W/m2
05:00 56.9 °F 21.5 °F 30.03 in East 6.0 mph 12.0 mph 25 % 0.00 in 0.00 W/m2
05:05 56.9 °F 21.5 °F 30.03 in Calm   9.0 mph 25 % 0.00 in 0.00 W/m2
05:06 56.9 °F 21.5 °F 30.03 in East 6.0 mph 6.0 mph 25 % 0.00 in 0.00 W/m2
05:11 56.9 °F 21.5 °F 30.03 in Calm   8.0 mph 25 % 0.00 in 0.00 W/m2
05:16 56.8 °F 21.4 °F 30.03 in East 5.0 mph 11.0 mph 25 % 0.00 in 0.00 W/m2
05:21 56.8 °F 20.4 °F 30.03 in East 4.0 mph 12.0 mph 24 % 0.00 in 0.00 W/m2
05:26 56.8 °F 20.4 °F 30.03 in East 7.0 mph 9.0 mph 24 % 0.00 in 0.00 W/m2
05:31 56.8 °F 20.4 °F 30.03 in East 7.0 mph 13.0 mph 24 % 0.00 in 0.00 W/m2
05:36 56.9 °F 20.5 °F 30.03 in East 7.0 mph 14.0 mph 24 % 0.00 in 0.00 W/m2
05:41 56.9 °F 20.5 °F 30.03 in East 5.0 mph 11.0 mph 24 % 0.00 in 0.00 W/m2
05:46 57.0 °F 20.6 °F 30.03 in East 8.0 mph 8.0 mph 24 % 0.00 in 0.00 W/m2
05:51 57.0 °F 19.6 °F 30.03 in East 3.0 mph 6.0 mph 23 % 0.00 in 0.00 W/m2
05:56 57.1 °F 19.7 °F 30.03 in ESE 5.0 mph 7.0 mph 23 % 0.00 in 0.00 W/m2
06:01 57.2 °F 20.8 °F 30.03 in East 7.0 mph 14.0 mph 24 % 0.00 in 0.00 W/m2
06:07 57.2 °F 19.8 °F 30.03 in East 11.0 mph 12.0 mph 23 % 0.00 in 0.00 W/m2
06:12 57.3 °F 19.8 °F 30.03 in East 8.0 mph 13.0 mph 23 % 0.00 in 0.00 W/m2
06:17 57.4 °F 19.9 °F 30.03 in ESE 7.0 mph 11.0 mph 23 % 0.00 in 0.00 W/m2
06:18 57.4 °F 20.9 °F 30.03 in East 8.0 mph 11.0 mph 24 % 0.00 in 0.00 W/m2
06:23 57.5 °F 21.0 °F 30.03 in East 5.0 mph 14.0 mph 24 % 0.00 in 0.00 W/m2
06:28 57.5 °F 21.0 °F 30.03 in East 5.0 mph 12.0 mph 24 % 0.00 in 0.00 W/m2
06:33 57.6 °F 22.1 °F 30.03 in East 6.0 mph 12.0 mph 25 % 0.00 in 0.00 W/m2
06:38 57.6 °F 22.1 °F 30.03 in ESE 9.0 mph 14.0 mph 25 % 0.00 in 0.00 W/m2
06:43 57.6 °F 22.1 °F 30.03 in ESE 2.0 mph 12.0 mph 25 % 0.00 in 0.00 W/m2
06:48 57.6 °F 22.1 °F 30.03 in ESE 4.0 mph 12.0 mph 25 % 0.00 in 0.00 W/m2
06:53 57.6 °F 22.1 °F 30.03 in ESE 2.0 mph 12.0 mph 25 % 0.00 in 0.00 W/m2
06:58 57.6 °F 22.1 °F 30.03 in East 5.0 mph 12.0 mph 25 % 0.00 in 0.00 W/m2
07:08 57.6 °F 22.1 °F 30.03 in East 6.0 mph 13.0 mph 25 % 0.00 in 0.00 W/m2
07:13 57.6 °F 23.0 °F 30.03 in ESE 5.0 mph 11.0 mph 26 % 0.00 in 0.00 W/m2
07:18 57.5 °F 22.9 °F 30.03 in Calm   14.0 mph 26 % 0.00 in 5.00 W/m2
07:23 57.5 °F 22.9 °F 30.03 in ESE 4.0 mph 9.0 mph 26 % 0.00 in 9.00 W/m2
07:28 57.5 °F 22.9 °F 30.03 in East 8.0 mph 11.0 mph 26 % 0.00 in 11.00 W/m2
07:33 57.4 °F 23.7 °F 30.03 in ESE 1.0 mph 9.0 mph 27 % 0.00 in 12.00 W/m2
07:38 57.4 °F 23.7 °F 30.03 in Calm   12.0 mph 27 % 0.00 in 21.00 W/m2
07:43 57.3 °F 23.6 °F 30.03 in ESE 4.0 mph 12.0 mph 27 % 0.00 in 28.00 W/m2
07:48 57.3 °F 24.5 °F 30.04 in Calm   11.0 mph 28 % 0.00 in 39.00 W/m2
07:53 57.2 °F 24.4 °F 30.04 in Calm   13.0 mph 28 % 0.00 in 51.00 W/m2
07:58 57.2 °F 24.4 °F 30.04 in ESE 2.0 mph 11.0 mph 28 % 0.00 in 67.00 W/m2
08:03 57.2 °F 25.2 °F 30.04 in East 4.0 mph 11.0 mph 29 % 0.00 in 83.00 W/m2
08:08 57.3 °F 25.3 °F 30.04 in East 5.0 mph 12.0 mph 29 % 0.00 in 98.00 W/m2
08:13 57.3 °F 26.2 °F 30.05 in East 5.0 mph 12.0 mph 30 % 0.00 in 113.00 W/m2
08:18 57.3 °F 26.2 °F 30.05 in Calm   9.0 mph 30 % 0.00 in 130.00 W/m2
08:23 57.4 °F 27.0 °F 30.05 in East 2.0 mph 8.0 mph 31 % 0.00 in 148.00 W/m2
08:24 57.4 °F 27.0 °F 30.05 in Calm   8.0 mph 31 % 0.00 in 151.00 W/m2
08:29 57.5 °F 27.1 °F 30.05 in Calm   6.0 mph 31 % 0.00 in 172.00 W/m2
08:34 57.6 °F 27.2 °F 30.05 in Calm   8.0 mph 31 % 0.00 in 188.00 W/m2
08:39 57.7 °F 28.1 °F 30.05 in Calm   6.0 mph 32 % 0.00 in 209.00 W/m2
08:44 57.8 °F 28.2 °F 30.06 in Calm   6.0 mph 32 % 0.00 in 227.00 W/m2
08:49 57.9 °F 29.0 °F 30.06 in ESE 1.0 mph 9.0 mph 33 % 0.00 in 250.00 W/m2
08:54 58.1 °F 29.2 °F 30.06 in Calm   8.0 mph 33 % 0.00 in 265.00 W/m2
08:59 58.2 °F 30.0 °F 30.06 in East 4.0 mph 9.0 mph 34 % 0.00 in 285.00 W/m2
09:04 58.4 °F 30.2 °F 30.06 in Calm   7.0 mph 34 % 0.00 in 304.00 W/m2
09:09 58.6 °F 30.3 °F 30.06 in Calm   8.0 mph 34 % 0.00 in 318.00 W/m2
09:14 58.8 °F 31.2 °F 30.06 in Calm   7.0 mph 35 % 0.00 in 334.00 W/m2
09:19 59.0 °F 31.4 °F 30.06 in Calm   4.0 mph 35 % 0.00 in 346.00 W/m2
09:24 59.3 °F 32.4 °F 30.06 in Calm   7.0 mph 36 % 0.00 in 359.00 W/m2
09:29 59.5 °F 32.5 °F 30.06 in Calm   5.0 mph 36 % 0.00 in 374.00 W/m2
09:34 59.8 °F 32.8 °F 30.06 in Calm   6.0 mph 36 % 0.00 in 388.00 W/m2
09:39 60.1 °F 33.1 °F 30.06 in Calm   7.0 mph 36 % 0.00 in 401.00 W/m2
09:44 60.5 °F 32.7 °F 30.07 in Calm   5.0 mph 35 % 0.00 in 415.00 W/m2
09:49 60.9 °F 32.4 °F 30.06 in Calm   6.0 mph 34 % 0.00 in 427.00 W/m2
09:54 61.3 °F 32.7 °F 30.07 in Calm   8.0 mph 34 % 0.00 in 439.00 W/m2
10:00 61.7 °F 33.1 °F 30.07 in Calm   4.0 mph 34 % 0.00 in 454.00 W/m2
10:05 62.2 °F 32.8 °F 30.06 in Calm   1.0 mph 33 % 0.00 in 466.00 W/m2
10:10 62.6 °F 33.1 °F 30.06 in ESE 2.0 mph 6.0 mph 33 % 0.00 in 478.00 W/m2
10:15 63.0 °F 31.1 °F 30.06 in ESE 2.0 mph 7.0 mph 30 % 0.00 in 489.00 W/m2
10:20 63.4 °F 31.5 °F 30.06 in Calm   7.0 mph 30 % 0.00 in 501.00 W/m2
10:25 64.0 °F 32.0 °F 30.06 in Calm   6.0 mph 30 % 0.00 in 515.00 W/m2
10:30 64.6 °F 32.5 °F 30.06 in Calm   5.0 mph 30 % 0.00 in 527.00 W/m2
10:35 65.0 °F 32.0 °F 30.06 in Calm   1.0 mph 29 % 0.00 in 540.00 W/m2
10:40 65.5 °F 32.4 °F 30.07 in Calm   4.0 mph 29 % 0.00 in 548.00 W/m2
10:45 65.9 °F 32.8 °F 30.06 in Calm   2.0 mph 29 % 0.00 in 559.00 W/m2
10:50 66.3 °F 33.1 °F 30.07 in Calm   1.0 mph 29 % 0.00 in 568.00 W/m2
10:55 66.7 °F 33.5 °F 30.06 in Calm     29 % 0.00 in 578.00 W/m2
11:00 67.0 °F 33.7 °F 30.06 in Calm     29 % 0.00 in 587.00 W/m2
11:10 67.8 °F 33.5 °F 30.06 in Calm     28 % 0.00 in 601.00 W/m2
11:15 68.5 °F 35.0 °F 30.06 in Calm   2.0 mph 29 % 0.00 in 610.00 W/m2
11:20 69.0 °F 34.6 °F 30.06 in Calm   1.0 mph 28 % 0.00 in 615.00 W/m2
11:25 69.5 °F 35.9 °F 30.06 in Calm   7.0 mph 29 % 0.00 in 622.00 W/m2
11:30 69.8 °F 33.4 °F 30.06 in Calm   9.0 mph 26 % 0.00 in 629.00 W/m2
11:35 70.2 °F 33.7 °F 30.06 in South 3.0 mph 7.0 mph 26 % 0.00 in 633.00 W/m2
11:40 70.5 °F 33.0 °F 30.06 in SSE 1.0 mph 6.0 mph 25 % 0.00 in 638.00 W/m2
11:45 70.9 °F 32.3 °F 30.06 in SSE 2.0 mph 5.0 mph 24 % 0.00 in 645.00 W/m2
11:50 71.3 °F 30.5 °F 30.06 in SSE 2.0 mph 6.0 mph 22 % 0.00 in 647.00 W/m2
11:55 71.7 °F 30.9 °F 30.06 in Calm   4.0 mph 22 % 0.00 in 649.00 W/m2
12:01 72.1 °F 30.0 °F 30.05 in SSE 5.0 mph 6.0 mph 21 % 0.00 in 654.00 W/m2
12:06 72.4 °F 31.4 °F 30.05 in Calm     22 % 0.00 in 659.00 W/m2
12:11 72.6 °F 32.7 °F 30.05 in SSW 3.0 mph 5.0 mph 23 % 0.00 in 661.00 W/m2
12:16 72.7 °F 32.8 °F 30.05 in Calm   4.0 mph 23 % 0.00 in 664.00 W/m2
12:21 72.8 °F 32.9 °F 30.05 in Calm   1.0 mph 23 % 0.00 in 664.00 W/m2
12:26 72.9 °F 33.0 °F 30.05 in Calm   1.0 mph 23 % 0.00 in 670.00 W/m2
12:31 73.0 °F 33.0 °F 30.05 in SSW 1.0 mph 1.0 mph 23 % 0.00 in 666.00 W/m2
12:36 73.2 °F 33.2 °F 30.05 in South 7.0 mph 7.0 mph 23 % 0.00 in 666.00 W/m2
12:41 73.3 °F 34.4 °F 30.05 in Calm     24 % 0.00 in 673.00 W/m2
12:47 73.5 °F 35.6 °F 30.05 in West 5.0 mph 6.0 mph 25 % 0.00 in 671.00 W/m2
12:52 73.5 °F 34.5 °F 30.04 in Calm   5.0 mph 24 % 0.00 in 671.00 W/m2
12:57 73.7 °F 33.6 °F 30.04 in SSW 5.0 mph 7.0 mph 23 % 0.00 in 673.00 W/m2
13:02 73.7 °F 33.6 °F 30.04 in Calm   6.0 mph 23 % 0.00 in 671.00 W/m2
13:07 73.8 °F 33.7 °F 30.04 in WSW 6.0 mph 6.0 mph 23 % 0.00 in 671.00 W/m2
13:12 73.8 °F 33.7 °F 30.04 in Calm   10.0 mph 23 % 0.00 in 668.00 W/m2
13:17 73.9 °F 33.8 °F 30.03 in SW 3.0 mph 8.0 mph 23 % 0.00 in 663.00 W/m2
13:22 74.0 °F 33.9 °F 30.03 in WSW 3.0 mph 6.0 mph 23 % 0.00 in 657.00 W/m2
13:27 74.0 °F 32.8 °F 30.03 in SW 8.0 mph 8.0 mph 22 % 0.00 in 657.00 W/m2
13:28 74.0 °F 32.8 °F 30.03 in Calm   8.0 mph 22 % 0.00 in 654.00 W/m2
13:33 74.1 °F 32.9 °F 30.03 in Calm   8.0 mph 22 % 0.00 in 650.00 W/m2
13:38 74.1 °F 32.9 °F 30.02 in South 5.0 mph 6.0 mph 22 % 0.00 in 650.00 W/m2
13:43 74.4 °F 30.8 °F 30.02 in South 6.0 mph 10.0 mph 20 % 0.00 in 647.00 W/m2
13:48 74.6 °F 32.1 °F 30.02 in SW 11.0 mph 12.0 mph 21 % 0.00 in 638.00 W/m2
13:53 74.8 °F 31.1 °F 30.02 in Calm   7.0 mph 20 % 0.00 in 638.00 W/m2
13:58 74.9 °F 29.9 °F 30.02 in SW 2.0 mph 2.0 mph 19 % 0.00 in 633.00 W/m2
14:03 75.1 °F 31.3 °F 30.01 in Calm   9.0 mph 20 % 0.00 in 628.00 W/m2
14:08 75.2 °F 30.1 °F 30.01 in Calm   8.0 mph 19 % 0.00 in 621.00 W/m2
14:13 75.3 °F 28.9 °F 30.01 in Calm   7.0 mph 18 % 0.00 in 610.00 W/m2
14:18 75.4 °F 29.0 °F 30.01 in Calm   4.0 mph 18 % 0.00 in 606.00 W/m2
14:23 75.4 °F 31.6 °F 30.01 in WSW 1.0 mph 6.0 mph 20 % 0.00 in 598.00 W/m2
14:28 75.2 °F 30.1 °F 30.01 in SW 1.0 mph 3.0 mph 19 % 0.00 in 587.00 W/m2
14:33 75.1 °F 31.3 °F 30.01 in Calm   8.0 mph 20 % 0.00 in 578.00 W/m2
14:39 75.0 °F 31.2 °F 30.01 in Calm   6.0 mph 20 % 0.00 in 570.00 W/m2
14:44 75.0 °F 30.0 °F 30.01 in West 3.0 mph 9.0 mph 19 % 0.00 in 559.00 W/m2
14:49 74.9 °F 32.4 °F 30.01 in South 6.0 mph 7.0 mph 21 % 0.00 in 550.00 W/m2
14:54 74.9 °F 32.4 °F 30.01 in Calm   6.0 mph 21 % 0.00 in 540.00 W/m2
14:59 74.8 °F 32.3 °F 30.00 in SSW 5.0 mph 8.0 mph 21 % 0.00 in 534.00 W/m2
15:04 74.8 °F 33.5 °F 30.00 in WSW 7.0 mph 10.0 mph 22 % 0.00 in 522.00 W/m2
15:06 74.8 °F 33.5 °F 30.00 in Calm   5.0 mph 22 % 0.00 in 515.00 W/m2
15:11 74.6 °F 32.1 °F 30.00 in West 2.0 mph 6.0 mph 21 % 0.00 in 508.00 W/m2
15:16 74.5 °F 32.0 °F 30.00 in Calm     21 % 0.00 in 492.00 W/m2
15:21 74.3 °F 31.9 °F 30.00 in Calm     21 % 0.00 in 480.00 W/m2
15:27 74.0 °F 31.6 °F 30.00 in West 3.0 mph 3.0 mph 21 % 0.00 in 469.00 W/m2
15:32 73.8 °F 31.5 °F 30.00 in West 3.0 mph 5.0 mph 21 % 0.00 in 457.00 W/m2
15:37 73.7 °F 31.4 °F 30.00 in Calm   6.0 mph 21 % 0.00 in 448.00 W/m2
15:42 73.6 °F 31.3 °F 30.00 in Calm   4.0 mph 21 % 0.00 in 434.00 W/m2
15:47 73.6 °F 32.5 °F 30.00 in Calm   1.0 mph 22 % 0.00 in 422.00 W/m2
15:52 73.5 °F 32.4 °F 30.00 in Calm   5.0 mph 22 % 0.00 in 404.00 W/m2
15:57 73.4 °F 32.3 °F 29.99 in Calm   4.0 mph 22 % 0.00 in 394.00 W/m2
16:02 73.2 °F 31.0 °F 29.99 in SW 3.0 mph 7.0 mph 21 % 0.00 in 378.00 W/m2
16:07 73.1 °F 30.9 °F 29.99 in Calm   4.0 mph 21 % 0.00 in 364.00 W/m2
16:12 73.1 °F 30.9 °F 29.99 in SW 1.0 mph 1.0 mph 21 % 0.00 in 348.00 W/m2
16:17 72.9 °F 30.7 °F 29.99 in Calm   2.0 mph 21 % 0.00 in 334.00 W/m2
16:22 72.8 °F 31.8 °F 29.99 in SW 5.0 mph 7.0 mph 22 % 0.00 in 320.00 W/m2
16:23 72.8 °F 31.8 °F 29.99 in SW 4.0 mph 7.0 mph 22 % 0.00 in 318.00 W/m2
16:28 72.7 °F 31.7 °F 29.99 in Calm   5.0 mph 22 % 0.00 in 302.00 W/m2
16:33 72.6 °F 32.7 °F 29.99 in Calm     23 % 0.00 in 288.00 W/m2
16:38 72.4 °F 31.4 °F 29.99 in Calm   1.0 mph 22 % 0.00 in 272.00 W/m2
16:43 72.1 °F 32.3 °F 29.99 in Calm   5.0 mph 23 % 0.00 in 257.00 W/m2
16:48 71.9 °F 32.1 °F 29.99 in WSW 3.0 mph 5.0 mph 23 % 0.00 in 239.00 W/m2
16:53 71.8 °F 32.0 °F 29.99 in Calm   4.0 mph 23 % 0.00 in 225.00 W/m2
16:58 71.6 °F 32.9 °F 29.99 in Calm   6.0 mph 24 % 0.00 in 209.00 W/m2
17:03 71.5 °F 32.8 °F 29.99 in WSW 3.0 mph 4.0 mph 24 % 0.00 in 192.00 W/m2
17:08 71.4 °F 31.7 °F 29.99 in Calm   4.0 mph 23 % 0.00 in 172.00 W/m2
17:13 71.3 °F 32.7 °F 29.98 in WSW 2.0 mph 2.0 mph 24 % 0.00 in 155.00 W/m2
17:18 71.0 °F 31.4 °F 29.98 in Calm     23 % 0.00 in 135.00 W/m2
17:23 70.8 °F 32.3 °F 29.98 in Calm   1.0 mph 24 % 0.00 in 116.00 W/m2
17:28 70.7 °F 32.2 °F 29.98 in Calm     24 % 0.00 in 98.00 W/m2
17:33 70.6 °F 33.1 °F 29.98 in Calm   1.0 mph 25 % 0.00 in 81.00 W/m2
17:38 70.4 °F 32.9 °F 29.98 in Calm     25 % 0.00 in 67.00 W/m2
17:43 70.2 °F 33.7 °F 29.98 in Calm   1.0 mph 26 % 0.00 in 53.00 W/m2
17:48 70.0 °F 33.6 °F 29.98 in Calm     26 % 0.00 in 42.00 W/m2
17:53 69.7 °F 34.3 °F 29.98 in Calm     27 % 0.00 in 32.00 W/m2
17:58 69.3 °F 33.9 °F 29.98 in Calm   1.0 mph 27 % 0.00 in 23.00 W/m2
18:03 69.0 °F 33.7 °F 29.98 in Calm     27 % 0.00 in 18.00 W/m2
18:08 68.6 °F 34.2 °F 29.98 in Calm     28 % 0.00 in 14.00 W/m2
18:13 68.2 °F 33.9 °F 29.98 in Calm     28 % 0.00 in 11.00 W/m2
18:18 67.9 °F 33.6 °F 29.98 in Calm     28 % 0.00 in 7.00 W/m2
18:23 67.5 °F 34.2 °F 29.98 in Calm     29 % 0.00 in 5.00 W/m2
18:28 67.0 °F 33.7 °F 29.98 in Calm     29 % 0.00 in 0.00 W/m2
18:33 66.6 °F 33.4 °F 29.98 in Calm   3.0 mph 29 % 0.00 in 0.00 W/m2
18:38 66.1 °F 33.0 °F 29.98 in Calm   4.0 mph 29 % 0.00 in 0.00 W/m2
18:43 65.7 °F 32.6 °F 29.98 in Calm   5.0 mph 29 % 0.00 in 0.00 W/m2
18:48 65.1 °F 32.9 °F 29.98 in Calm   1.0 mph 30 % 0.00 in 0.00 W/m2
18:53 64.7 °F 32.6 °F 29.98 in Calm   3.0 mph 30 % 0.00 in 0.00 W/m2
18:58 64.2 °F 33.0 °F 29.98 in Calm   2.0 mph 31 % 0.00 in 0.00 W/m2
19:03 63.9 °F 32.7 °F 29.98 in Calm   1.0 mph 31 % 0.00 in 0.00 W/m2
19:08 63.5 °F 32.3 °F 29.98 in Calm   1.0 mph 31 % 0.00 in 0.00 W/m2
19:13 63.2 °F 32.1 °F 29.98 in Calm   1.0 mph 31 % 0.00 in 0.00 W/m2
19:18 62.9 °F 32.6 °F 29.98 in Calm   2.0 mph 32 % 0.00 in 0.00 W/m2
19:23 62.6 °F 32.3 °F 29.98 in SW 2.0 mph 2.0 mph 32 % 0.00 in 0.00 W/m2
19:28 62.2 °F 32.0 °F 29.98 in Calm     32 % 0.00 in 0.00 W/m2
19:33 61.9 °F 32.5 °F 29.98 in Calm   1.0 mph 33 % 0.00 in 0.00 W/m2
19:38 61.7 °F 32.3 °F 29.99 in Calm     33 % 0.00 in 0.00 W/m2
19:43 61.4 °F 32.1 °F 29.99 in Calm     33 % 0.00 in 0.00 W/m2
19:48 61.2 °F 32.6 °F 29.99 in Calm     34 % 0.00 in 0.00 W/m2
19:53 60.9 °F 32.4 °F 29.99 in Calm   1.0 mph 34 % 0.00 in 0.00 W/m2
19:54 60.9 °F 32.4 °F 29.99 in Calm   1.0 mph 34 % 0.00 in 0.00 W/m2
19:59 60.7 °F 32.2 °F 29.99 in Calm   4.0 mph 34 % 0.00 in 0.00 W/m2
20:04 60.5 °F 32.7 °F 29.99 in Calm   5.0 mph 35 % 0.00 in 0.00 W/m2
20:09 60.3 °F 32.6 °F 29.99 in Calm   2.0 mph 35 % 0.00 in 0.00 W/m2
20:16 60.0 °F 32.3 °F 29.99 in Calm   1.0 mph 35 % 0.00 in 0.00 W/m2
20:21 59.9 °F 32.2 °F 29.99 in Calm     35 % 0.00 in 0.00 W/m2
20:24 59.8 °F 32.1 °F 29.99 in Calm     35 % 0.00 in 0.00 W/m2
20:25 59.8 °F 32.1 °F 29.99 in South 1.0 mph 1.0 mph 35 % 0.00 in 0.00 W/m2
20:27 59.7 °F 32.0 °F 29.99 in Calm   4.0 mph 35 % 0.00 in 0.00 W/m2
20:29 59.6 °F 32.6 °F 29.99 in SSE 2.0 mph 4.0 mph 36 % 0.00 in 0.00 W/m2
20:32 59.5 °F 32.5 °F 29.99 in Calm   1.0 mph 36 % 0.00 in 0.00 W/m2
20:37 59.3 °F 32.4 °F 29.99 in Calm   5.0 mph 36 % 0.00 in 0.00 W/m2
20:39 59.3 °F 32.4 °F 29.99 in Calm   6.0 mph 36 % 0.00 in 0.00 W/m2
20:42 59.2 °F 32.3 °F 29.98 in Calm   5.0 mph 36 % 0.00 in 0.00 W/m2
20:47 59.1 °F 32.9 °F 29.98 in Calm   1.0 mph 37 % 0.00 in 0.00 W/m2
20:52 59.0 °F 32.8 °F 29.98 in Calm   7.0 mph 37 % 0.00 in 0.00 W/m2
20:57 58.8 °F 32.6 °F 29.98 in Calm   6.0 mph 37 % 0.00 in 0.00 W/m2
21:02 58.7 °F 32.5 °F 29.97 in Calm   4.0 mph 37 % 0.00 in 0.00 W/m2
21:07 58.6 °F 32.4 °F 29.98 in ESE 2.0 mph 5.0 mph 37 % 0.00 in 0.00 W/m2
21:12 58.5 °F 32.3 °F 29.97 in ESE 4.0 mph 9.0 mph 37 % 0.00 in 0.00 W/m2
21:17 58.4 °F 32.2 °F 29.97 in ESE 2.0 mph 8.0 mph 37 % 0.00 in 0.00 W/m2
21:22 58.3 °F 32.8 °F 29.97 in ESE 1.0 mph 7.0 mph 38 % 0.00 in 0.00 W/m2
21:27 58.2 °F 32.7 °F 29.97 in SE 5.0 mph 12.0 mph 38 % 0.00 in 0.00 W/m2
21:32 58.2 °F 32.7 °F 29.97 in Calm   12.0 mph 38 % 0.00 in 0.00 W/m2
21:37 58.1 °F 32.7 °F 29.97 in ESE 7.0 mph 8.0 mph 38 % 0.00 in 0.00 W/m2
21:42 58.0 °F 32.6 °F 29.97 in Calm   9.0 mph 38 % 0.00 in 0.00 W/m2
21:47 58.0 °F 32.6 °F 29.97 in ESE 7.0 mph 8.0 mph 38 % 0.00 in 0.00 W/m2
21:52 58.1 °F 32.7 °F 29.97 in Calm   11.0 mph 38 % 0.00 in 0.00 W/m2
21:57 58.1 °F 32.7 °F 29.97 in ESE 2.0 mph 11.0 mph 38 % 0.00 in 0.00 W/m2
22:02 58.1 °F 32.7 °F 29.97 in ESE 2.0 mph 11.0 mph 38 % 0.00 in 0.00 W/m2
22:07 58.0 °F 32.6 °F 29.97 in ESE 2.0 mph 11.0 mph 38 % 0.00 in 0.00 W/m2
22:12 58.0 °F 32.6 °F 29.97 in ESE 5.0 mph 9.0 mph 38 % 0.00 in 0.00 W/m2
22:17 58.0 °F 31.9 °F 29.97 in ESE 4.0 mph 11.0 mph 37 % 0.00 in 0.00 W/m2
22:22 58.0 °F 32.6 °F 29.97 in ESE 6.0 mph 9.0 mph 38 % 0.00 in 0.00 W/m2
22:27 58.0 °F 32.6 °F 29.97 in ESE 14.0 mph 14.0 mph 38 % 0.00 in 0.00 W/m2
22:32 58.0 °F 32.6 °F 29.97 in ESE 5.0 mph 15.0 mph 38 % 0.00 in 0.00 W/m2
22:37 57.9 °F 31.8 °F 29.97 in ESE 5.0 mph 13.0 mph 37 % 0.00 in 0.00 W/m2
22:42 57.9 °F 32.5 °F 29.97 in ESE 7.0 mph 13.0 mph 38 % 0.00 in 0.00 W/m2
22:47 57.8 °F 31.7 °F 29.97 in ESE 2.0 mph 14.0 mph 37 % 0.00 in 0.00 W/m2
22:52 57.8 °F 31.7 °F 29.97 in ESE 1.0 mph 7.0 mph 37 % 0.00 in 0.00 W/m2
22:57 57.8 °F 31.7 °F 29.97 in ESE 11.0 mph 14.0 mph 37 % 0.00 in 0.00 W/m2
23:02 57.7 °F 31.6 °F 29.97 in ESE 2.0 mph 11.0 mph 37 % 0.00 in 0.00 W/m2
23:07 57.7 °F 31.6 °F 29.97 in ESE 9.0 mph 13.0 mph 37 % 0.00 in 0.00 W/m2
23:12 57.7 °F 31.6 °F 29.97 in ESE 5.0 mph 12.0 mph 37 % 0.00 in 0.00 W/m2
23:17 57.7 °F 31.6 °F 29.97 in ESE 6.0 mph 9.0 mph 37 % 0.00 in 0.00 W/m2
23:22 57.6 °F 31.5 °F 29.97 in ESE 2.0 mph 12.0 mph 37 % 0.00 in 0.00 W/m2
23:28 57.6 °F 31.5 °F 29.97 in ESE 8.0 mph 12.0 mph 37 % 0.00 in 0.00 W/m2
23:32 57.6 °F 31.5 °F 29.97 in Calm   16.0 mph 37 % 0.00 in 0.00 W/m2
23:48 57.5 °F 31.5 °F 29.97 in ESE 2.0 mph 12.0 mph 37 % 0.00 in 0.00 W/m2
23:53 57.4 °F 31.4 °F 29.97 in ESE 8.0 mph 9.0 mph 37 % 0.00 in 0.00 W/m2
23:58 57.4 °F 31.4 °F 29.97 in SE 7.0 mph 8.0 mph 37 % 0.00 in 0.00 W/m2
Juneau County Weather
Compliments of Weather Underground - 4.5 mb
 WU-history PHP script courtesy of   Juneau County Weather.
powered by Cumulus v1.9.3 (1059)
Ambient Weather VWS v14.00
Top Contact Website Map Copyright © 2007 - 2018 Foresthillweather.com Never base important decisions on this or any weather information obtained from the Internet